Date String (YYYY-MM-DD hh:mm:ss) UTC,Instrument flags,Ambient pressure (hPa),Sample flow (lpm),Bypass flow (lpm),Sample temperature (°C),Ambient temperature (°C),ASC tube jacket temperature (°C),LED temperature (°C),Box temperature (°C),Sample RH (%),Span deviation,Mass concentration (μg/m³),Mass concentration (μg/m³),Mass concentration (μg/m³)
DateTimeUTC,F1_M11,P_M11,Q1_M11,Q2_M11,T1_M11,T2_M11,T3_M11,T4_M11,T5_M11,U1_M11,ZSPAN_M11,X0_M11,X2_M11,X1_M11
2021-12-08 05:00:00,,0820.8,4.99,0.00,22.7,22.0,00.0,31.7,24.4,11.3,0000.0,0008.22,0002.61,0001.22
2021-12-08 05:01:00,,0820.8,5.01,0.00,22.7,22.0,00.0,31.7,24.4,11.3,0000.0,0008.35,0002.76,0001.29
2021-12-08 05:02:00,,0820.8,5.00,0.00,22.7,22.0,00.0,31.7,24.5,11.3,0000.0,0008.54,0002.90,0001.34
2021-12-08 05:03:00,,0820.9,4.99,0.00,22.7,22.0,00.0,31.7,24.5,11.3,0000.0,0009.10,0003.05,0001.39
2021-12-08 05:04:00,,0820.9,5.00,0.00,22.7,22.1,00.0,31.7,24.5,11.3,0000.0,0009.85,0003.10,0001.42
2021-12-08 05:05:00,,0820.9,4.99,0.00,22.8,22.1,00.0,31.7,24.6,11.4,0000.0,0010.99,0003.21,0001.50
2021-12-08 05:06:00,,0820.8,5.01,0.00,22.8,22.1,00.0,31.7,24.6,11.5,0000.0,0012.34,0003.43,0001.67
2021-12-08 05:07:00,,0820.9,4.99,0.00,22.8,22.1,00.0,31.7,24.6,11.3,0000.0,0012.93,0003.52,0001.72
2021-12-08 05:08:00,,0820.9,5.00,0.00,22.8,22.1,00.0,31.8,24.6,11.4,0000.0,0013.18,0003.63,0001.79
2021-12-08 05:09:00,,0820.9,5.01,0.00,22.8,22.2,00.0,31.8,24.6,11.4,0000.0,0014.85,0003.79,0001.89
2021-12-08 05:10:00,,0820.9,5.00,0.00,22.8,22.2,00.0,31.8,24.6,11.5,0000.0,0015.61,0003.93,0002.03
2021-12-08 05:11:00,,0820.9,4.99,0.00,22.8,22.2,00.0,31.8,24.6,11.4,0000.0,0016.65,0004.08,0002.11
2021-12-08 05:12:00,,0820.9,5.01,0.00,22.9,22.2,00.0,31.8,24.7,11.5,0000.0,0018.21,0004.31,0002.26
2021-12-08 05:13:00,,0820.9,4.99,0.00,22.9,22.2,00.0,31.8,24.6,11.5,0000.0,0020.03,0004.61,0002.45
2021-12-08 05:14:00,,0820.9,5.01,0.00,22.9,22.2,00.0,31.8,24.7,11.5,0000.0,0023.35,0004.91,0002.64
2021-12-08 05:15:00,,0820.9,4.99,0.00,22.9,22.2,00.0,31.8,24.7,11.5,0000.0,0024.79,0005.17,0002.80
2021-12-08 05:16:00,,0820.9,5.00,0.00,22.9,22.2,00.0,31.8,24.7,11.5,0000.0,0025.69,0005.33,0002.94
2021-12-08 05:17:00,,0820.9,5.01,0.00,22.9,22.2,00.0,31.8,24.7,11.5,0000.0,0025.25,0005.38,0002.97
2021-12-08 05:18:00,,0820.9,4.99,0.00,22.9,22.2,00.0,31.9,24.7,11.5,0000.0,0025.92,0005.58,0003.04
2021-12-08 05:19:00,,0820.9,5.00,0.00,22.9,22.2,00.0,31.9,24.7,11.4,0000.0,0026.96,0005.75,0003.12
2021-12-08 05:20:00,,0820.9,5.02,0.00,22.9,22.2,00.0,31.9,24.7,11.4,0000.0,0026.35,0005.77,0003.15
2021-12-08 05:21:00,,0820.9,5.00,0.00,22.9,22.3,00.0,31.9,24.8,11.3,0000.0,0025.82,0005.78,0003.15
2021-12-08 05:22:00,,0820.9,4.99,0.00,22.9,22.3,00.0,31.9,24.8,11.2,0000.0,0025.25,0005.74,0003.15
2021-12-08 05:23:00,,0820.9,5.01,0.00,23.0,22.3,00.0,31.9,24.8,11.3,0000.0,0024.21,0005.64,0003.12
2021-12-08 05:24:00,,0821.0,4.99,0.00,23.0,22.3,00.0,31.9,24.8,11.3,0000.0,0023.76,0005.54,0003.08
2021-12-08 05:25:00,,0820.9,5.01,0.00,23.0,22.3,00.0,31.9,24.8,11.4,0000.0,0022.88,0005.48,0003.07
2021-12-08 05:26:00,,0820.9,5.00,0.00,23.0,22.3,00.0,31.9,24.8,11.4,0000.0,0022.78,0005.47,0003.09
2021-12-08 05:27:00,,0820.9,5.00,0.00,23.0,22.3,00.0,31.9,24.8,11.4,0000.0,0022.10,0005.40,0003.06
2021-12-08 05:28:00,,0821.0,5.01,0.00,23.0,22.3,00.0,31.9,24.8,11.4,0000.0,0021.95,0005.34,0003.04
2021-12-08 05:29:00,,0821.0,5.00,0.00,23.0,22.3,00.0,31.9,24.8,11.3,0000.0,0022.26,0005.28,0003.05
2021-12-08 05:30:00,,0821.0,4.99,0.00,23.0,22.3,00.0,31.9,24.8,11.4,0000.0,0021.71,0005.19,0003.05
2021-12-08 05:31:00,,0821.0,5.00,0.00,23.0,22.4,00.0,32.0,24.9,11.4,0000.0,0021.91,0005.21,0003.03
2021-12-08 05:32:00,,0821.0,4.99,0.00,23.0,22.4,00.0,32.0,24.9,11.4,0000.0,0022.72,0005.22,0003.04
2021-12-08 05:33:00,,0821.1,5.00,0.00,23.0,22.4,00.0,32.0,24.9,11.4,0000.0,0023.92,0005.29,0003.10
2021-12-08 05:34:00,,0821.0,5.00,0.00,23.0,22.4,00.0,32.0,24.9,11.4,0000.0,0024.86,0005.38,0003.14
2021-12-08 05:35:00,,0821.0,5.00,0.00,23.1,22.4,00.0,32.0,24.9,11.4,0000.0,0025.25,0005.45,0003.17
2021-12-08 05:36:00,,0821.0,4.98,0.00,23.1,22.4,00.0,32.0,24.9,11.4,0000.0,0024.32,0005.56,0003.18
2021-12-08 05:37:00,,0821.0,4.99,0.00,23.1,22.4,00.0,32.0,24.9,11.4,0000.0,0023.41,0005.64,0003.20
2021-12-08 05:38:00,,0821.0,5.01,0.00,23.1,22.4,00.0,32.0,24.9,11.4,0000.0,0024.90,0005.78,0003.23
2021-12-08 05:39:00,,0820.9,4.99,0.00,23.1,22.3,00.0,32.0,24.9,11.4,0000.0,0025.85,0005.92,0003.26
2021-12-08 05:40:00,,0821.0,5.00,0.00,23.1,22.3,00.0,32.0,24.9,11.4,0000.0,0025.61,0005.97,0003.27
2021-12-08 05:41:00,,0821.1,5.00,0.00,23.1,22.3,00.0,32.0,24.9,11.4,0000.0,0026.06,0006.06,0003.30
2021-12-08 05:42:00,,0821.0,5.01,0.00,23.1,22.3,00.0,32.0,24.9,11.4,0000.0,0025.74,0006.13,0003.33
2021-12-08 05:43:00,,0821.0,4.99,0.00,23.1,22.3,00.0,32.0,24.9,11.4,0000.0,0025.18,0006.17,0003.34
2021-12-08 05:44:00,,0821.0,5.01,0.00,23.1,22.3,00.0,32.0,24.9,11.4,0000.0,0025.17,0006.24,0003.35
2021-12-08 05:45:00,,0821.0,4.98,0.00,23.1,22.3,00.0,32.0,24.9,11.3,0000.0,0024.89,0006.34,0003.35
2021-12-08 05:46:00,,0820.9,5.01,0.00,23.1,22.3,00.0,32.0,24.9,11.3,0000.0,0024.58,0006.38,0003.34
2021-12-08 05:47:00,,0820.9,4.99,0.00,23.1,22.3,00.0,32.0,24.9,11.3,0000.0,0023.85,0006.29,0003.34
2021-12-08 05:48:00,,0820.9,5.02,0.00,23.1,22.3,00.0,32.0,24.9,11.2,0000.0,0023.99,0006.12,0003.31
2021-12-08 05:49:00,,0820.9,4.99,0.00,23.1,22.3,00.0,32.0,24.9,11.2,0000.0,0022.40,0006.05,0003.29
2021-12-08 05:50:00,,0820.9,5.00,0.00,23.1,22.3,00.0,32.0,24.9,11.3,0000.0,0021.50,0005.92,0003.26
2021-12-08 05:51:00,,0820.9,5.01,0.00,23.1,22.3,00.0,32.0,24.9,11.2,0000.0,0021.67,0005.83,0003.24
2021-12-08 05:52:00,,0820.8,5.00,0.00,23.1,22.3,00.0,32.0,24.9,11.2,0000.0,0021.54,0005.74,0003.22
2021-12-08 05:53:00,,0820.8,4.99,0.00,23.1,22.3,00.0,32.0,24.9,11.2,0000.0,0021.73,0005.62,0003.18
2021-12-08 05:54:00,,0820.7,5.01,0.00,23.1,22.4,00.0,32.0,24.9,11.2,0000.0,0022.32,0005.59,0003.15
2021-12-08 05:55:00,,0820.7,4.99,0.00,23.1,22.3,00.0,32.0,24.9,11.2,0000.0,0020.94,0005.47,0003.11
2021-12-08 05:56:00,,0820.7,5.01,0.00,23.1,22.3,00.0,32.0,24.9,11.2,0000.0,0020.47,0005.37,0003.08
2021-12-08 05:57:00,,0820.7,5.00,0.00,23.1,22.3,00.0,32.0,24.9,11.2,0000.0,0020.20,0005.24,0003.02
2021-12-08 05:58:00,,0820.7,4.99,0.00,23.1,22.4,00.0,32.0,24.9,11.2,0000.0,0020.11,0005.15,0002.98
2021-12-08 05:59:00,,0820.7,5.00,0.00,23.1,22.3,00.0,32.0,24.9,11.2,0000.0,0020.30,0005.16,0002.93
